Location: Assche-ter-Heiden
(50.9174°N, 4.1574°E)
Time: 13:23:30
(UTC+00:00)

Cosmos 2278 Rocket - Pass Details

Date: 20 January 2020
Orbit: 842 x 844 km, 71.0° (Epoch: 16 February)

Event Time Altitude Azimuth Distance (km) Brightness Sun altitude
Exits shadow 05:23:36 - 343° (NNW) 2,739 4.6 -20.3°
Reaches altitude 10° 05:25:01 10° 355° (N) 2,473 4.5 -20.1°
Maximum altitude 05:27:31 13° 22° (NNE) 2,272 4.6 -19.7°
Drops below altitude 10° 05:30:01 10° 48° (NE) 2,471 5.1 -19.3°
Sets 05:34:03 0° 76° (ENE) 3,404 6.6 -18.7°
